Regional Weather Roundup
Issued by NWS

Home | Current Version | Previous Version | Text Only | Print | Product List | Glossary On
Versions: 1 2 3 4 5 6 7 8 9 10 11 12 13 14 15 16 17 18 19 20 21 22 23 24 25 26 27 28 29 30 31 32 33 34 35 36 37 38 39 40 41 42 43 44 45 46 47 48 49 50
000
ASUS43 KIND 290909
RWRIN

WEATHER ROUNDUP FOR INDIANA
NATIONAL WEATHER SERVICE INDIANAPOLIS IN
500 AM EDT SUN MAY 29 2016

NOTE: "FAIR" INDICATES FEW OR NO CLOUDS BELOW 12,000 FEET WITH NO
SIGNIFICANT WEATHER AND/OR OBSTRUCTIONS TO VISIBILITY.

* - STATION DOES NOT REPORT WEATHER SUCH AS PRECIPITATION OR FOG.

+ - STATION NOT QUALITY CONTROLLED BY THE NATIONAL WEATHER SERVICE.
    USE DATA WITH CAUTION...ESPECIALLY DEWPOINT AND RELATIVE
    HUMIDITY OBSERVATIONS.

INZ001>003-010>013-019-020-291000-
NORTHWEST INDIANA

CITY           SKY/WX    TMP DP  RH WIND       PRES   REMARKS
GARY /AIRPORT/ MOCLDY    69  64  84 S5        29.97F
KNOX *+        PTCLDY    64  46  52 SW7       29.99R
LA PORTE +     PTCLDY    64  58  80 SW5       30.00R
MICHIGAN CITY+ CLOUDY    64  55  72 S6        29.98S
MONTICELLO +   PTCLDY    67  54  62 S6        30.01F
RENSSELAER +   PTCLDY    64  57  77 S8        30.00S
VALPARAISO     CLOUDY    62  55  77 CALM      29.99S

$$

LMZ046-743>745-291000-
SOUTHERN LAKE MICHIGAN

STATION/POSITION TIME  TEMP    WIND        PRES    WAVE
                       AIR SEA DIR/SP/G            HT
                 (UTC) (F)     (DEG/KT/KT) (MB)    (FT)
BURNS HARBOR     0800   68     180/  7/ 13 1014.9S
MICHIGAN CITY    0800   69     180/ 13/ 14   N/A
5NW MICH CITY    0900   62 56  200/  6/  8   N/A     1

$$

INZ004-005-014>016-021>024-291000-
NORTH CENTRAL INDIANA

CITY           SKY/WX    TMP DP  RH WIND       PRES   REMARKS
GOSHEN         CLOUDY    69  64  84 S9        30.00F
LOGANSPORT +   PTCLDY    66  63  88 S6        30.03F
PERU/GRISSOM   PTCLDY    68  67  97 S9        30.02F
ROCHESTER +    FOG       70  66  88 S7        30.02F VSB 1/2
SOUTH BEND     CLOUDY    65  60  84 S7        29.98F
WARSAW +       CLOUDY    70  64  83 S6        30.01F

$$

INZ006>009-017-018-025>027-291000-
NORTHEAST INDIANA

CITY           SKY/WX    TMP DP  RH WIND       PRES   REMARKS
ANGOLA *+        N/A     68  61  77 S6        30.03S
AUBURN +       CLOUDY    68  63  83 S3        30.05S
FORT WAYNE     CLOUDY    68  65  90 S7        30.04F
HUNTINGTON +   CLOUDY   N/A N/A N/A SW5       30.04F

$$

INZ028-029-035-036-043>045-051>053-291000-
WEST CENTRAL INDIANA

CITY           SKY/WX    TMP DP  RH WIND       PRES   REMARKS
CRAWFORDSVL +  CLOUDY    65  65 100 SE5       30.05S
GREENCASTLE +  PTCLDY    64  64 100 CALM      30.06S FOG
LAFAYETTE      CLOUDY    62  59  90 CALM      30.02F
TERRE HAUTE    CLEAR     68  65  90 S5        30.04S

$$

INZ030>032-037>040-046>048-054>057-064-065-291000-
CENTRAL INDIANA

CITY           SKY/WX    TMP DP  RH WIND       PRES   REMARKS
CP ATTERBURY + CLOUDY    64  63  94 CALM      30.09R
FRANKFORT +      N/A     67  67 100 CALM      30.06F
GREENWOOD *+   MOCLDY    68  66  94 S6        30.08S
INDIANAPOLIS   MOCLDY    68  65  90 SE5       30.05S
-EAGLE CREEK   MOCLDY    69  65  86 CALM      30.06S
KOKOMO *+      MOCLDY    68  63  83 S8        30.04F
MARION +       CLOUDY    68  65  89 S9        30.06S
SHELBYVILLE    CLOUDY    69  64  84 S6        30.07S
ZIONSVILLE +   PTCLDY    67  64  91 S5        30.07S

$$

INZ033-034-041-042-049-050-058-059-291000-
EAST CENTRAL INDIANA

CITY           SKY/WX    TMP DP  RH WIND       PRES   REMARKS
MUNCIE         PTCLDY    70  64  81 S6        30.07F

$$

INZ060-061-067>069-081>083-085>088-291000-
SOUTHWEST INDIANA

CITY           SKY/WX    TMP DP  RH WIND       PRES   REMARKS
EVANSVILLE     CLEAR     66  63  90 CALM      30.07R
HUNTINGBURG *+ MOCLDY    66  63  88 CALM      30.08R
WASHINGTON +   MOCLDY    68  68 100 CALM      30.06R

$$

INZ062-063-066-070>080-084-089>092-291000-
SOUTH CENTRAL AND SOUTHEAST INDIANA

CITY           SKY/WX    TMP DP  RH WIND       PRES   REMARKS
BLOOMINGTON    PTCLDY    66  63  90 SE3       30.08R
MADISON *+     CLOUDY    68  63  83 CALM      30.10S
NORTH VERNON + MOCLDY   N/A N/A N/A CALM      30.08F
SEYMOUR +      CLOUDY    68  64  88 CALM      30.06F

$$





USA.gov is the U.S. government's official web portal to all federal, state and local government web resources and services.